Time,TemperatureF,DewpointF,PressureIn,WindDirection,WindDirectionDegrees,WindSpeedMPH,WindSpeedGustMPH,Humidity,HourlyPrecipIn,Conditions,Clouds,dailyrainin,SoftwareType,DateUTC
2013-03-15 00:00:00,36.0,16.7,29.81,North,-999,-999.0,-999.0,45,-99.99,,,-99.99,meteohub,2013-03-15 04:00:00,
2013-03-15 00:02:00,36.0,16.7,29.81,North,-999,-999.0,-999.0,45,-99.99,,,-99.99,meteohub,2013-03-15 04:02:00,
2013-03-15 00:07:00,35.4,17.2,29.81,North,-999,-999.0,-999.0,47,-99.99,,,-99.99,meteohub,2013-03-15 04:07:00,
2013-03-15 00:12:00,35.4,17.2,29.81,North,-999,-999.0,-999.0,47,-99.99,,,-99.99,meteohub,2013-03-15 04:12:00,
2013-03-15 00:17:00,35.4,17.8,29.81,North,-999,-999.0,-999.0,48,-99.99,,,-99.99,meteohub,2013-03-15 04:17:00,
2013-03-15 00:22:00,35.1,18.0,29.81,North,-999,-999.0,-999.0,49,-99.99,,,-99.99,meteohub,2013-03-15 04:22:00,
2013-03-15 00:28:00,34.9,18.1,29.81,North,-999,-999.0,-999.0,50,-99.99,,,-99.99,meteohub,2013-03-15 04:28:00,
2013-03-15 00:33:00,34.7,17.6,29.81,North,-999,-999.0,-999.0,49,-99.99,,,-99.99,meteohub,2013-03-15 04:33:00,
2013-03-15 00:38:00,34.7,17.6,29.81,North,-999,-999.0,-999.0,49,-99.99,,,-99.99,meteohub,2013-03-15 04:38:00,
2013-03-15 00:43:00,34.5,17.4,29.81,North,-999,-999.0,-999.0,49,-99.99,,,-99.99,meteohub,2013-03-15 04:43:00,
2013-03-15 00:48:00,34.3,17.6,29.81,North,-999,-999.0,-999.0,50,-99.99,,,-99.99,meteohub,2013-03-15 04:48:00,
2013-03-15 00:53:00,34.2,17.6,29.81,North,-999,-999.0,-999.0,50,-99.99,,,-99.99,meteohub,2013-03-15 04:53:00,
2013-03-15 00:59:00,34.0,17.8,29.81,North,-999,-999.0,-999.0,51,-99.99,,,-99.99,meteohub,2013-03-15 04:59:00,
2013-03-15 01:04:00,34.0,17.8,29.81,North,-999,-999.0,-999.0,51,-99.99,,,-99.99,meteohub,2013-03-15 05:04:00,
2013-03-15 01:09:00,34.0,17.8,29.81,North,-999,-999.0,-999.0,51,-99.99,,,-99.99,meteohub,2013-03-15 05:09:00,
2013-03-15 01:14:00,33.8,17.6,29.81,North,-999,-999.0,-999.0,51,-99.99,,,-99.99,meteohub,2013-03-15 05:14:00,
2013-03-15 01:19:00,33.6,17.4,29.81,North,-999,-999.0,-999.0,51,-99.99,,,-99.99,meteohub,2013-03-15 05:19:00,
2013-03-15 01:24:00,33.6,18.0,29.81,North,-999,-999.0,-999.0,52,-99.99,,,-99.99,meteohub,2013-03-15 05:24:00,
2013-03-15 01:30:00,33.6,18.0,29.81,North,-999,-999.0,-999.0,52,-99.99,,,-99.99,meteohub,2013-03-15 05:30:00,
2013-03-15 01:35:00,33.4,17.8,29.81,North,-999,-999.0,-999.0,52,-99.99,,,-99.99,meteohub,2013-03-15 05:35:00,
2013-03-15 01:40:00,33.4,17.8,29.81,North,-999,-999.0,-999.0,52,-99.99,,,-99.99,meteohub,2013-03-15 05:40:00,
2013-03-15 01:45:00,33.3,17.6,29.81,North,-999,-999.0,-999.0,52,-99.99,,,-99.99,meteohub,2013-03-15 05:45:00,
2013-03-15 01:50:00,33.3,17.6,29.81,North,-999,-999.0,-999.0,52,-99.99,,,-99.99,meteohub,2013-03-15 05:50:00,
2013-03-15 01:55:00,33.3,17.6,29.81,North,-999,-999.0,-999.0,52,-99.99,,,-99.99,meteohub,2013-03-15 05:55:00,
2013-03-15 02:01:00,33.1,17.8,29.81,North,-999,-999.0,-999.0,53,-99.99,,,-99.99,meteohub,2013-03-15 06:01:00,
2013-03-15 02:06:00,33.1,17.8,29.81,North,-999,-999.0,-999.0,53,-99.99,,,-99.99,meteohub,2013-03-15 06:06:00,
2013-03-15 02:11:00,32.9,18.1,29.81,North,-999,-999.0,-999.0,54,-99.99,,,-99.99,meteohub,2013-03-15 06:11:00,
2013-03-15 02:16:00,32.9,18.1,29.81,North,-999,-999.0,-999.0,54,-99.99,,,-99.99,meteohub,2013-03-15 06:16:00,
2013-03-15 02:21:00,32.9,18.1,29.81,North,-999,-999.0,-999.0,54,-99.99,,,-99.99,meteohub,2013-03-15 06:21:00,
2013-03-15 02:27:00,32.9,18.1,29.81,North,-999,-999.0,-999.0,54,-99.99,,,-99.99,meteohub,2013-03-15 06:27:00,
2013-03-15 02:32:00,33.1,17.8,29.81,North,-999,-999.0,-999.0,53,-99.99,,,-99.99,meteohub,2013-03-15 06:32:00,
2013-03-15 02:37:00,33.1,17.8,29.81,North,-999,-999.0,-999.0,53,-99.99,,,-99.99,meteohub,2013-03-15 06:37:00,
2013-03-15 02:42:00,33.1,17.8,29.81,North,-999,-999.0,-999.0,53,-99.99,,,-99.99,meteohub,2013-03-15 06:42:00,
2013-03-15 02:47:00,33.1,17.8,29.81,North,-999,-999.0,-999.0,53,-99.99,,,-99.99,meteohub,2013-03-15 06:47:00,
2013-03-15 02:52:00,33.1,17.8,29.81,North,-999,-999.0,-999.0,53,-99.99,,,-99.99,meteohub,2013-03-15 06:52:00,
2013-03-15 02:57:00,32.9,17.8,29.81,North,-999,-999.0,-999.0,53,-99.99,,,-99.99,meteohub,2013-03-15 06:57:00,
2013-03-15 03:02:00,32.9,17.8,29.81,North,-999,-999.0,-999.0,53,-99.99,,,-99.99,meteohub,2013-03-15 07:02:00,
2013-03-15 03:07:00,32.7,17.6,29.81,North,-999,-999.0,-999.0,53,-99.99,,,-99.99,meteohub,2013-03-15 07:07:00,
2013-03-15 03:13:00,32.5,17.4,29.81,North,-999,-999.0,-999.0,53,-99.99,,,-99.99,meteohub,2013-03-15 07:13:00,
2013-03-15 03:18:00,32.4,17.2,29.81,North,-999,-999.0,-999.0,53,-99.99,,,-99.99,meteohub,2013-03-15 07:18:00,
2013-03-15 03:23:00,32.4,17.2,29.81,North,-999,-999.0,-999.0,53,-99.99,,,-99.99,meteohub,2013-03-15 07:23:00,
2013-03-15 03:28:00,32.4,17.2,29.81,North,-999,-999.0,-999.0,53,-99.99,,,-99.99,meteohub,2013-03-15 07:28:00,
2013-03-15 03:33:00,32.2,18.0,29.81,North,-999,-999.0,-999.0,55,-99.99,,,-99.99,meteohub,2013-03-15 07:33:00,
2013-03-15 03:39:00,32.0,17.8,29.81,North,-999,-999.0,-999.0,55,-99.99,,,-99.99,meteohub,2013-03-15 07:39:00,
2013-03-15 03:44:00,31.8,17.1,29.81,North,-999,-999.0,-999.0,54,-99.99,,,-99.99,meteohub,2013-03-15 07:44:00,
2013-03-15 03:49:00,31.5,16.7,29.78,North,-999,-999.0,-999.0,54,-99.99,,,-99.99,meteohub,2013-03-15 07:49:00,
2013-03-15 03:54:00,31.3,16.5,29.78,North,-999,-999.0,-999.0,54,-99.99,,,-99.99,meteohub,2013-03-15 07:54:00,
2013-03-15 03:59:00,31.3,16.5,29.78,North,-999,-999.0,-999.0,54,-99.99,,,-99.99,meteohub,2013-03-15 07:59:00,
2013-03-15 04:04:00,31.1,16.3,29.78,North,-999,-999.0,-999.0,54,-99.99,,,-99.99,meteohub,2013-03-15 08:04:00,
2013-03-15 04:10:00,30.9,16.3,29.78,North,-999,-999.0,-999.0,54,-99.99,,,-99.99,meteohub,2013-03-15 08:10:00,
2013-03-15 04:15:00,30.9,16.3,29.78,North,-999,-999.0,-999.0,54,-99.99,,,-99.99,meteohub,2013-03-15 08:15:00,
2013-03-15 04:20:00,30.7,16.2,29.78,North,-999,-999.0,-999.0,54,-99.99,,,-99.99,meteohub,2013-03-15 08:20:00,
2013-03-15 04:25:00,30.6,16.0,29.78,North,-999,-999.0,-999.0,54,-99.99,,,-99.99,meteohub,2013-03-15 08:25:00,
2013-03-15 04:30:00,30.4,15.8,29.78,North,-999,-999.0,-999.0,54,-99.99,,,-99.99,meteohub,2013-03-15 08:30:00,
2013-03-15 04:35:00,30.2,16.0,29.78,North,-999,-999.0,-999.0,55,-99.99,,,-99.99,meteohub,2013-03-15 08:35:00,
2013-03-15 04:40:00,30.2,16.0,29.78,North,-999,-999.0,-999.0,55,-99.99,,,-99.99,meteohub,2013-03-15 08:40:00,
2013-03-15 04:46:00,30.2,16.0,29.78,North,-999,-999.0,-999.0,55,-99.99,,,-99.99,meteohub,2013-03-15 08:46:00,
2013-03-15 04:52:00,30.0,16.2,29.78,North,-999,-999.0,-999.0,56,-99.99,,,-99.99,meteohub,2013-03-15 08:52:00,
2013-03-15 04:57:00,30.0,16.2,29.78,North,-999,-999.0,-999.0,56,-99.99,,,-99.99,meteohub,2013-03-15 08:57:00,
2013-03-15 05:02:00,30.0,16.2,29.78,North,-999,-999.0,-999.0,56,-99.99,,,-99.99,meteohub,2013-03-15 09:02:00,
2013-03-15 05:07:00,30.0,16.2,29.78,North,-999,-999.0,-999.0,56,-99.99,,,-99.99,meteohub,2013-03-15 09:07:00,
2013-03-15 05:12:00,29.8,16.5,29.78,North,-999,-999.0,-999.0,57,-99.99,,,-99.99,meteohub,2013-03-15 09:12:00,
2013-03-15 05:17:00,29.8,16.5,29.78,North,-999,-999.0,-999.0,57,-99.99,,,-99.99,meteohub,2013-03-15 09:17:00,
2013-03-15 05:22:00,29.7,16.3,29.78,North,-999,-999.0,-999.0,57,-99.99,,,-99.99,meteohub,2013-03-15 09:22:00,
2013-03-15 05:27:00,29.5,16.2,29.78,North,-999,-999.0,-999.0,57,-99.99,,,-99.99,meteohub,2013-03-15 09:27:00,
2013-03-15 05:32:00,29.5,16.5,29.78,North,-999,-999.0,-999.0,58,-99.99,,,-99.99,meteohub,2013-03-15 09:32:00,
2013-03-15 05:37:00,29.3,16.3,29.78,North,-999,-999.0,-999.0,58,-99.99,,,-99.99,meteohub,2013-03-15 09:37:00,
2013-03-15 05:42:00,29.3,16.3,29.78,North,-999,-999.0,-999.0,58,-99.99,,,-99.99,meteohub,2013-03-15 09:42:00,
2013-03-15 05:47:00,29.3,16.3,29.78,North,-999,-999.0,-999.0,58,-99.99,,,-99.99,meteohub,2013-03-15 09:47:00,
2013-03-15 05:52:00,29.1,16.2,29.81,North,-999,-999.0,-999.0,58,-99.99,,,-99.99,meteohub,2013-03-15 09:52:00,
2013-03-15 05:57:00,29.1,16.5,29.81,North,-999,-999.0,-999.0,59,-99.99,,,-99.99,meteohub,2013-03-15 09:57:00,
2013-03-15 06:02:00,28.9,16.9,29.81,North,-999,-999.0,-999.0,60,-99.99,,,-99.99,meteohub,2013-03-15 10:02:00,
2013-03-15 06:07:00,28.9,16.9,29.81,North,-999,-999.0,-999.0,60,-99.99,,,-99.99,meteohub,2013-03-15 10:07:00,
2013-03-15 06:13:00,28.9,16.9,29.81,North,-999,-999.0,-999.0,60,-99.99,,,-99.99,meteohub,2013-03-15 10:13:00,
2013-03-15 06:18:00,28.9,16.9,29.81,North,-999,-999.0,-999.0,60,-99.99,,,-99.99,meteohub,2013-03-15 10:18:00,
2013-03-15 06:23:00,28.9,16.9,29.81,North,-999,-999.0,-999.0,60,-99.99,,,-99.99,meteohub,2013-03-15 10:23:00,
2013-03-15 06:28:00,28.8,16.7,29.81,North,-999,-999.0,-999.0,60,-99.99,,,-99.99,meteohub,2013-03-15 10:28:00,
2013-03-15 06:33:00,28.9,16.9,29.81,North,-999,-999.0,-999.0,60,-99.99,,,-99.99,meteohub,2013-03-15 10:33:00,
2013-03-15 06:39:00,28.8,17.4,29.81,North,-999,-999.0,-999.0,62,-99.99,,,-99.99,meteohub,2013-03-15 10:39:00,
2013-03-15 06:44:00,28.8,17.4,29.81,North,-999,-999.0,-999.0,62,-99.99,,,-99.99,meteohub,2013-03-15 10:44:00,
2013-03-15 06:49:00,28.8,17.8,29.81,North,-999,-999.0,-999.0,63,-99.99,,,-99.99,meteohub,2013-03-15 10:49:00,
2013-03-15 06:54:00,28.8,18.1,29.81,North,-999,-999.0,-999.0,64,-99.99,,,-99.99,meteohub,2013-03-15 10:54:00,
2013-03-15 06:59:00,28.6,17.6,29.81,North,-999,-999.0,-999.0,63,-99.99,,,-99.99,meteohub,2013-03-15 10:59:00,
2013-03-15 07:04:00,28.6,17.6,29.84,North,-999,-999.0,-999.0,63,-99.99,,,-99.99,meteohub,2013-03-15 11:04:00,
2013-03-15 07:10:00,28.6,18.0,29.84,North,-999,-999.0,-999.0,64,-99.99,,,-99.99,meteohub,2013-03-15 11:10:00,
2013-03-15 07:15:00,28.6,18.0,29.84,North,-999,-999.0,-999.0,64,-99.99,,,-99.99,meteohub,2013-03-15 11:15:00,
2013-03-15 07:20:00,28.6,18.0,29.84,North,-999,-999.0,-999.0,64,-99.99,,,-99.99,meteohub,2013-03-15 11:20:00,
2013-03-15 07:25:00,28.6,18.0,29.84,North,-999,-999.0,-999.0,64,-99.99,,,-99.99,meteohub,2013-03-15 11:25:00,
2013-03-15 07:30:00,28.6,18.0,29.84,North,-999,-999.0,-999.0,64,-99.99,,,-99.99,meteohub,2013-03-15 11:30:00,
2013-03-15 07:36:00,28.6,18.0,29.84,North,-999,-999.0,-999.0,64,-99.99,,,-99.99,meteohub,2013-03-15 11:36:00,
2013-03-15 07:41:00,28.6,18.0,29.84,North,-999,-999.0,-999.0,64,-99.99,,,-99.99,meteohub,2013-03-15 11:41:00,
2013-03-15 07:46:00,28.6,18.3,29.84,North,-999,-999.0,-999.0,65,-99.99,,,-99.99,meteohub,2013-03-15 11:46:00,
2013-03-15 07:51:00,28.6,18.3,29.84,North,-999,-999.0,-999.0,65,-99.99,,,-99.99,meteohub,2013-03-15 11:51:00,
2013-03-15 07:56:00,28.8,18.9,29.84,North,-999,-999.0,-999.0,66,-99.99,,,-99.99,meteohub,2013-03-15 11:56:00,
2013-03-15 08:01:00,28.9,19.0,29.84,North,-999,-999.0,-999.0,66,-99.99,,,-99.99,meteohub,2013-03-15 12:01:00,
2013-03-15 08:07:00,29.1,19.6,29.84,North,-999,-999.0,-999.0,67,-99.99,,,-99.99,meteohub,2013-03-15 12:07:00,
2013-03-15 08:12:00,29.5,19.9,29.84,North,-999,-999.0,-999.0,67,-99.99,,,-99.99,meteohub,2013-03-15 12:12:00,
2013-03-15 08:17:00,29.8,20.3,29.84,North,-999,-999.0,-999.0,67,-99.99,,,-99.99,meteohub,2013-03-15 12:17:00,
2013-03-15 08:22:00,30.2,20.7,29.84,North,-999,-999.0,-999.0,67,-99.99,,,-99.99,meteohub,2013-03-15 12:22:00,
2013-03-15 08:28:00,30.7,21.0,29.84,North,-999,-999.0,-999.0,67,-99.99,,,-99.99,meteohub,2013-03-15 12:28:00,
2013-03-15 08:33:00,31.3,21.9,29.84,North,-999,-999.0,-999.0,68,-99.99,,,-99.99,meteohub,2013-03-15 12:33:00,
2013-03-15 08:38:00,32.0,22.3,29.84,North,-999,-999.0,-999.0,67,-99.99,,,-99.99,meteohub,2013-03-15 12:38:00,
2013-03-15 08:43:00,32.5,23.2,29.84,North,-999,-999.0,-999.0,68,-99.99,,,-99.99,meteohub,2013-03-15 12:43:00,
2013-03-15 08:48:00,33.1,23.4,29.84,North,-999,-999.0,-999.0,67,-99.99,,,-99.99,meteohub,2013-03-15 12:48:00,
2013-03-15 08:53:00,34.0,23.5,29.84,North,-999,-999.0,-999.0,65,-99.99,,,-99.99,meteohub,2013-03-15 12:53:00,
2013-03-15 08:59:00,34.9,23.2,29.84,North,-999,-999.0,-999.0,62,-99.99,,,-99.99,meteohub,2013-03-15 12:59:00,
2013-03-15 09:04:00,35.8,23.7,29.84,North,-999,-999.0,-999.0,61,-99.99,,,-99.99,meteohub,2013-03-15 13:04:00,
2013-03-15 09:09:00,36.5,23.5,29.84,North,-999,-999.0,-999.0,59,-99.99,,,-99.99,meteohub,2013-03-15 13:09:00,
2013-03-15 09:14:00,37.6,24.3,29.84,North,-999,-999.0,-999.0,58,-99.99,,,-99.99,meteohub,2013-03-15 13:14:00,
2013-03-15 09:19:00,39.0,23.4,29.84,North,-999,-999.0,-999.0,53,-99.99,,,-99.99,meteohub,2013-03-15 13:19:00,
2013-03-15 09:24:00,40.3,24.6,29.84,North,-999,-999.0,-999.0,53,-99.99,,,-99.99,meteohub,2013-03-15 13:24:00,
2013-03-15 09:30:00,41.2,24.4,29.84,North,-999,-999.0,-999.0,51,-99.99,,,-99.99,meteohub,2013-03-15 13:30:00,
2013-03-15 09:35:00,42.4,24.6,29.84,North,-999,-999.0,-999.0,49,-99.99,,,-99.99,meteohub,2013-03-15 13:35:00,
2013-03-15 09:40:00,43.3,25.5,29.84,North,-999,-999.0,-999.0,49,-99.99,,,-99.99,meteohub,2013-03-15 13:40:00,
2013-03-15 09:45:00,44.1,25.7,29.84,North,-999,-999.0,-999.0,48,-99.99,,,-99.99,meteohub,2013-03-15 13:45:00,
2013-03-15 09:50:00,44.6,24.6,29.84,North,-999,-999.0,-999.0,45,-99.99,,,-99.99,meteohub,2013-03-15 13:50:00,
2013-03-15 09:55:00,45.3,25.3,29.84,North,-999,-999.0,-999.0,45,-99.99,,,-99.99,meteohub,2013-03-15 13:55:00,
2013-03-15 10:01:00,46.2,26.1,29.84,North,-999,-999.0,-999.0,45,-99.99,,,-99.99,meteohub,2013-03-15 14:01:00,
2013-03-15 10:06:00,46.9,25.2,29.84,North,-999,-999.0,-999.0,42,-99.99,,,-99.99,meteohub,2013-03-15 14:06:00,
2013-03-15 10:11:00,47.3,24.3,29.84,North,-999,-999.0,-999.0,40,-99.99,,,-99.99,meteohub,2013-03-15 14:11:00,
2013-03-15 10:16:00,48.0,25.0,29.84,North,-999,-999.0,-999.0,40,-99.99,,,-99.99,meteohub,2013-03-15 14:16:00,
2013-03-15 10:22:00,48.4,24.1,29.84,North,-999,-999.0,-999.0,38,-99.99,,,-99.99,meteohub,2013-03-15 14:22:00,
2013-03-15 10:27:00,49.1,24.6,29.84,North,-999,-999.0,-999.0,38,-99.99,,,-99.99,meteohub,2013-03-15 14:27:00,
2013-03-15 10:32:00,49.5,24.3,29.84,North,-999,-999.0,-999.0,37,-99.99,,,-99.99,meteohub,2013-03-15 14:32:00,
2013-03-15 10:37:00,50.0,24.1,29.81,North,-999,-999.0,-999.0,36,-99.99,,,-99.99,meteohub,2013-03-15 14:37:00,
2013-03-15 10:42:00,50.4,23.7,29.81,North,-999,-999.0,-999.0,35,-99.99,,,-99.99,meteohub,2013-03-15 14:42:00,
2013-03-15 10:47:00,50.7,24.1,29.81,North,-999,-999.0,-999.0,35,-99.99,,,-99.99,meteohub,2013-03-15 14:47:00,
2013-03-15 10:52:00,51.1,25.2,29.81,North,-999,-999.0,-999.0,36,-99.99,,,-99.99,meteohub,2013-03-15 14:52:00,
2013-03-15 10:57:00,51.4,22.6,29.81,North,-999,-999.0,-999.0,32,-99.99,,,-99.99,meteohub,2013-03-15 14:57:00,
2013-03-15 11:02:00,52.5,24.3,29.81,North,-999,-999.0,-999.0,33,-99.99,,,-99.99,meteohub,2013-03-15 15:02:00,
2013-03-15 11:07:00,52.7,24.4,29.81,North,-999,-999.0,-999.0,33,-99.99,,,-99.99,meteohub,2013-03-15 15:07:00,
2013-03-15 11:12:00,53.4,24.4,29.81,North,-999,-999.0,-999.0,32,-99.99,,,-99.99,meteohub,2013-03-15 15:12:00,
2013-03-15 11:18:00,54.0,24.1,29.81,North,-999,-999.0,-999.0,31,-99.99,,,-99.99,meteohub,2013-03-15 15:18:00,
2013-03-15 11:23:00,54.3,24.4,29.81,North,-999,-999.0,-999.0,31,-99.99,,,-99.99,meteohub,2013-03-15 15:23:00,
2013-03-15 11:28:00,54.3,24.4,29.81,North,-999,-999.0,-999.0,31,-99.99,,,-99.99,meteohub,2013-03-15 15:28:00,
2013-03-15 11:33:00,54.5,24.6,29.81,North,-999,-999.0,-999.0,31,-99.99,,,-99.99,meteohub,2013-03-15 15:33:00,
2013-03-15 11:39:00,55.2,25.2,29.78,North,-999,-999.0,-999.0,31,-99.99,,,-99.99,meteohub,2013-03-15 15:39:00,
2013-03-15 11:44:00,55.9,25.9,29.78,North,-999,-999.0,-999.0,31,-99.99,,,-99.99,meteohub,2013-03-15 15:44:00,
2013-03-15 11:49:00,55.6,24.6,29.78,North,-999,-999.0,-999.0,30,-99.99,,,-99.99,meteohub,2013-03-15 15:49:00,
2013-03-15 11:54:00,56.8,26.6,29.78,North,-999,-999.0,-999.0,31,-99.99,,,-99.99,meteohub,2013-03-15 15:54:00,
2013-03-15 11:59:00,55.8,24.8,29.78,North,-999,-999.0,-999.0,30,-99.99,,,-99.99,meteohub,2013-03-15 15:59:00,
2013-03-15 12:04:00,57.0,25.9,29.78,North,-999,-999.0,-999.0,30,-99.99,,,-99.99,meteohub,2013-03-15 16:04:00,
2013-03-15 12:09:00,57.2,26.1,29.78,North,-999,-999.0,-999.0,30,-99.99,,,-99.99,meteohub,2013-03-15 16:09:00,
2013-03-15 12:15:00,57.4,25.5,29.78,North,-999,-999.0,-999.0,29,-99.99,,,-99.99,meteohub,2013-03-15 16:15:00,
2013-03-15 12:20:00,58.1,27.0,29.75,North,-999,-999.0,-999.0,30,-99.99,,,-99.99,meteohub,2013-03-15 16:20:00,
2013-03-15 12:25:00,59.4,28.0,29.75,North,-999,-999.0,-999.0,30,-99.99,,,-99.99,meteohub,2013-03-15 16:25:00,
2013-03-15 12:30:00,59.0,26.8,29.75,North,-999,-999.0,-999.0,29,-99.99,,,-99.99,meteohub,2013-03-15 16:30:00,
2013-03-15 12:35:00,59.2,27.0,29.75,North,-999,-999.0,-999.0,29,-99.99,,,-99.99,meteohub,2013-03-15 16:35:00,
2013-03-15 12:40:00,60.3,28.8,29.75,North,-999,-999.0,-999.0,30,-99.99,,,-99.99,meteohub,2013-03-15 16:40:00,
2013-03-15 12:46:00,60.1,27.9,29.75,North,-999,-999.0,-999.0,29,-99.99,,,-99.99,meteohub,2013-03-15 16:46:00,
2013-03-15 12:51:00,59.0,26.1,29.75,North,-999,-999.0,-999.0,28,-99.99,,,-99.99,meteohub,2013-03-15 16:51:00,
2013-03-15 12:56:00,59.0,26.1,29.75,North,-999,-999.0,-999.0,28,-99.99,,,-99.99,meteohub,2013-03-15 16:56:00,
2013-03-15 13:01:00,59.5,26.4,29.75,North,-999,-999.0,-999.0,28,-99.99,,,-99.99,meteohub,2013-03-15 17:01:00,
2013-03-15 13:06:00,59.9,26.8,29.75,North,-999,-999.0,-999.0,28,-99.99,,,-99.99,meteohub,2013-03-15 17:06:00,
2013-03-15 13:11:00,60.1,27.0,29.75,North,-999,-999.0,-999.0,28,-99.99,,,-99.99,meteohub,2013-03-15 17:11:00,
2013-03-15 13:16:00,59.9,26.8,29.75,North,-999,-999.0,-999.0,28,-99.99,,,-99.99,meteohub,2013-03-15 17:16:00,
2013-03-15 13:21:00,59.7,26.6,29.75,North,-999,-999.0,-999.0,28,-99.99,,,-99.99,meteohub,2013-03-15 17:21:00,
2013-03-15 13:27:00,61.0,28.6,29.75,North,-999,-999.0,-999.0,29,-99.99,,,-99.99,meteohub,2013-03-15 17:27:00,
2013-03-15 13:32:00,61.0,27.7,29.75,North,-999,-999.0,-999.0,28,-99.99,,,-99.99,meteohub,2013-03-15 17:32:00,
2013-03-15 13:37:00,60.1,27.0,29.72,North,-999,-999.0,-999.0,28,-99.99,,,-99.99,meteohub,2013-03-15 17:37:00,
2013-03-15 13:42:00,60.6,27.3,29.72,North,-999,-999.0,-999.0,28,-99.99,,,-99.99,meteohub,2013-03-15 17:42:00,
2013-03-15 13:47:00,61.3,28.0,29.72,North,-999,-999.0,-999.0,28,-99.99,,,-99.99,meteohub,2013-03-15 17:47:00,
2013-03-15 13:52:00,61.9,28.4,29.72,North,-999,-999.0,-999.0,28,-99.99,,,-99.99,meteohub,2013-03-15 17:52:00,
2013-03-15 13:58:00,61.9,28.4,29.72,North,-999,-999.0,-999.0,28,-99.99,,,-99.99,meteohub,2013-03-15 17:58:00,
2013-03-15 14:03:00,61.7,28.4,29.72,North,-999,-999.0,-999.0,28,-99.99,,,-99.99,meteohub,2013-03-15 18:03:00,
2013-03-15 14:08:00,62.2,28.8,29.69,North,-999,-999.0,-999.0,28,-99.99,,,-99.99,meteohub,2013-03-15 18:08:00,
2013-03-15 14:13:00,62.4,29.8,29.69,North,-999,-999.0,-999.0,29,-99.99,,,-99.99,meteohub,2013-03-15 18:13:00,
2013-03-15 14:19:00,63.0,30.2,29.69,North,-999,-999.0,-999.0,29,-99.99,,,-99.99,meteohub,2013-03-15 18:19:00,
2013-03-15 14:24:00,63.3,29.7,29.69,North,-999,-999.0,-999.0,28,-99.99,,,-99.99,meteohub,2013-03-15 18:24:00,
2013-03-15 14:29:00,63.1,30.4,29.69,North,-999,-999.0,-999.0,29,-99.99,,,-99.99,meteohub,2013-03-15 18:29:00,
2013-03-15 14:34:00,63.9,31.1,29.69,North,-999,-999.0,-999.0,29,-99.99,,,-99.99,meteohub,2013-03-15 18:34:00,
2013-03-15 14:39:00,63.5,29.8,29.69,North,-999,-999.0,-999.0,28,-99.99,,,-99.99,meteohub,2013-03-15 18:39:00,
2013-03-15 14:44:00,63.3,29.7,29.69,North,-999,-999.0,-999.0,28,-99.99,,,-99.99,meteohub,2013-03-15 18:44:00,
2013-03-15 14:50:00,63.7,30.0,29.66,North,-999,-999.0,-999.0,28,-99.99,,,-99.99,meteohub,2013-03-15 18:50:00,
2013-03-15 14:55:00,63.1,29.5,29.66,North,-999,-999.0,-999.0,28,-99.99,,,-99.99,meteohub,2013-03-15 18:55:00,
2013-03-15 15:00:00,63.0,29.5,29.66,North,-999,-999.0,-999.0,28,-99.99,,,-99.99,meteohub,2013-03-15 19:00:00,
2013-03-15 15:06:00,63.0,29.5,29.66,North,-999,-999.0,-999.0,28,-99.99,,,-99.99,meteohub,2013-03-15 19:06:00,
2013-03-15 15:11:00,62.8,30.0,29.66,North,-999,-999.0,-999.0,29,-99.99,,,-99.99,meteohub,2013-03-15 19:11:00,
2013-03-15 15:17:00,63.0,29.5,29.66,North,-999,-999.0,-999.0,28,-99.99,,,-99.99,meteohub,2013-03-15 19:17:00,
2013-03-15 15:22:00,62.6,29.1,29.63,North,-999,-999.0,-999.0,28,-99.99,,,-99.99,meteohub,2013-03-15 19:22:00,
2013-03-15 15:27:00,62.8,29.3,29.63,North,-999,-999.0,-999.0,28,-99.99,,,-99.99,meteohub,2013-03-15 19:27:00,
2013-03-15 15:32:00,63.0,30.2,29.63,North,-999,-999.0,-999.0,29,-99.99,,,-99.99,meteohub,2013-03-15 19:32:00,
2013-03-15 15:37:00,62.8,29.3,29.63,North,-999,-999.0,-999.0,28,-99.99,,,-99.99,meteohub,2013-03-15 19:37:00,
2013-03-15 15:42:00,63.0,29.5,29.63,North,-999,-999.0,-999.0,28,-99.99,,,-99.99,meteohub,2013-03-15 19:42:00,
2013-03-15 15:47:00,63.1,29.5,29.63,North,-999,-999.0,-999.0,28,-99.99,,,-99.99,meteohub,2013-03-15 19:47:00,
2013-03-15 15:52:00,62.8,29.3,29.63,North,-999,-999.0,-999.0,28,-99.99,,,-99.99,meteohub,2013-03-15 19:52:00,
2013-03-15 15:57:00,62.8,30.0,29.63,North,-999,-999.0,-999.0,29,-99.99,,,-99.99,meteohub,2013-03-15 19:57:00,
2013-03-15 16:03:00,62.8,30.0,29.63,North,-999,-999.0,-999.0,29,-99.99,,,-99.99,meteohub,2013-03-15 20:03:00,
2013-03-15 16:08:00,62.4,29.8,29.63,North,-999,-999.0,-999.0,29,-99.99,,,-99.99,meteohub,2013-03-15 20:08:00,
2013-03-15 16:13:00,62.1,29.5,29.63,North,-999,-999.0,-999.0,29,-99.99,,,-99.99,meteohub,2013-03-15 20:13:00,
2013-03-15 16:18:00,62.2,29.7,29.63,North,-999,-999.0,-999.0,29,-99.99,,,-99.99,meteohub,2013-03-15 20:18:00,
2013-03-15 16:23:00,62.6,30.7,29.60,North,-999,-999.0,-999.0,30,-99.99,,,-99.99,meteohub,2013-03-15 20:23:00,
2013-03-15 16:29:00,62.2,31.3,29.60,North,-999,-999.0,-999.0,31,-99.99,,,-99.99,meteohub,2013-03-15 20:29:00,
2013-03-15 16:34:00,61.9,30.2,29.60,North,-999,-999.0,-999.0,30,-99.99,,,-99.99,meteohub,2013-03-15 20:34:00,
2013-03-15 16:39:00,61.9,30.2,29.60,North,-999,-999.0,-999.0,30,-99.99,,,-99.99,meteohub,2013-03-15 20:39:00,
2013-03-15 16:45:00,61.7,30.0,29.60,North,-999,-999.0,-999.0,30,-99.99,,,-99.99,meteohub,2013-03-15 20:45:00,
2013-03-15 16:51:00,61.7,30.0,29.60,North,-999,-999.0,-999.0,30,-99.99,,,-99.99,meteohub,2013-03-15 20:51:00,
2013-03-15 16:56:00,61.7,30.0,29.60,North,-999,-999.0,-999.0,30,-99.99,,,-99.99,meteohub,2013-03-15 20:56:00,
2013-03-15 17:02:00,61.3,28.9,29.60,North,-999,-999.0,-999.0,29,-99.99,,,-99.99,meteohub,2013-03-15 21:02:00,
2013-03-15 17:07:00,61.2,28.8,29.60,North,-999,-999.0,-999.0,29,-99.99,,,-99.99,meteohub,2013-03-15 21:07:00,
2013-03-15 17:12:00,61.0,28.6,29.60,North,-999,-999.0,-999.0,29,-99.99,,,-99.99,meteohub,2013-03-15 21:12:00,
2013-03-15 17:17:00,60.8,28.4,29.60,North,-999,-999.0,-999.0,29,-99.99,,,-99.99,meteohub,2013-03-15 21:17:00,
2013-03-15 17:22:00,60.6,29.1,29.60,North,-999,-999.0,-999.0,30,-99.99,,,-99.99,meteohub,2013-03-15 21:22:00,
2013-03-15 17:27:00,60.4,28.9,29.60,North,-999,-999.0,-999.0,30,-99.99,,,-99.99,meteohub,2013-03-15 21:27:00,
2013-03-15 17:32:00,60.4,28.9,29.60,North,-999,-999.0,-999.0,30,-99.99,,,-99.99,meteohub,2013-03-15 21:32:00,
2013-03-15 17:37:00,60.4,29.7,29.60,North,-999,-999.0,-999.0,31,-99.99,,,-99.99,meteohub,2013-03-15 21:37:00,
2013-03-15 17:42:00,60.4,29.7,29.60,North,-999,-999.0,-999.0,31,-99.99,,,-99.99,meteohub,2013-03-15 21:42:00,
2013-03-15 17:47:00,60.4,29.7,29.60,North,-999,-999.0,-999.0,31,-99.99,,,-99.99,meteohub,2013-03-15 21:47:00,
2013-03-15 17:52:00,60.3,29.5,29.60,North,-999,-999.0,-999.0,31,-99.99,,,-99.99,meteohub,2013-03-15 21:52:00,
2013-03-15 17:57:00,60.3,30.4,29.60,North,-999,-999.0,-999.0,32,-99.99,,,-99.99,meteohub,2013-03-15 21:57:00,
2013-03-15 18:02:00,60.3,30.4,29.60,North,-999,-999.0,-999.0,32,-99.99,,,-99.99,meteohub,2013-03-15 22:02:00,
2013-03-15 18:07:00,60.3,31.1,29.60,North,-999,-999.0,-999.0,33,-99.99,,,-99.99,meteohub,2013-03-15 22:07:00,
2013-03-15 18:12:00,60.4,31.3,29.60,North,-999,-999.0,-999.0,33,-99.99,,,-99.99,meteohub,2013-03-15 22:12:00,
2013-03-15 18:17:00,60.4,31.3,29.60,North,-999,-999.0,-999.0,33,-99.99,,,-99.99,meteohub,2013-03-15 22:17:00,
2013-03-15 18:22:00,60.4,31.3,29.57,North,-999,-999.0,-999.0,33,-99.99,,,-99.99,meteohub,2013-03-15 22:22:00,
2013-03-15 18:27:00,60.4,32.0,29.57,North,-999,-999.0,-999.0,34,-99.99,,,-99.99,meteohub,2013-03-15 22:27:00,
2013-03-15 18:32:00,60.6,32.2,29.57,North,-999,-999.0,-999.0,34,-99.99,,,-99.99,meteohub,2013-03-15 22:32:00,
2013-03-15 18:38:00,60.6,32.2,29.60,North,-999,-999.0,-999.0,34,-99.99,,,-99.99,meteohub,2013-03-15 22:38:00,
2013-03-15 18:43:00,60.6,32.2,29.60,North,-999,-999.0,-999.0,34,-99.99,,,-99.99,meteohub,2013-03-15 22:43:00,
2013-03-15 18:48:00,60.4,32.0,29.60,North,-999,-999.0,-999.0,34,-99.99,,,-99.99,meteohub,2013-03-15 22:48:00,
2013-03-15 18:53:00,60.3,31.8,29.57,North,-999,-999.0,-999.0,34,-99.99,,,-99.99,meteohub,2013-03-15 22:53:00,
2013-03-15 18:58:00,60.1,31.6,29.57,North,-999,-999.0,-999.0,34,-99.99,,,-99.99,meteohub,2013-03-15 22:58:00,
2013-03-15 19:03:00,59.5,31.3,29.57,North,-999,-999.0,-999.0,34,-99.99,,,-99.99,meteohub,2013-03-15 23:03:00,
2013-03-15 19:08:00,59.4,31.1,29.57,North,-999,-999.0,-999.0,34,-99.99,,,-99.99,meteohub,2013-03-15 23:08:00,
2013-03-15 19:13:00,59.4,31.1,29.57,North,-999,-999.0,-999.0,34,-99.99,,,-99.99,meteohub,2013-03-15 23:13:00,
2013-03-15 19:18:00,59.0,30.7,29.57,North,-999,-999.0,-999.0,34,-99.99,,,-99.99,meteohub,2013-03-15 23:18:00,
2013-03-15 19:24:00,58.8,31.3,29.57,North,-999,-999.0,-999.0,35,-99.99,,,-99.99,meteohub,2013-03-15 23:24:00,
2013-03-15 19:29:00,58.6,31.1,29.57,North,-999,-999.0,-999.0,35,-99.99,,,-99.99,meteohub,2013-03-15 23:29:00,
2013-03-15 19:34:00,58.3,30.7,29.57,North,-999,-999.0,-999.0,35,-99.99,,,-99.99,meteohub,2013-03-15 23:34:00,
2013-03-15 19:39:00,57.7,30.4,29.57,North,-999,-999.0,-999.0,35,-99.99,,,-99.99,meteohub,2013-03-15 23:39:00,
2013-03-15 19:44:00,57.2,29.8,29.57,North,-999,-999.0,-999.0,35,-99.99,,,-99.99,meteohub,2013-03-15 23:44:00,
2013-03-15 19:49:00,56.8,30.2,29.57,North,-999,-999.0,-999.0,36,-99.99,,,-99.99,meteohub,2013-03-15 23:49:00,
2013-03-15 19:55:00,56.8,30.2,29.57,North,-999,-999.0,-999.0,36,-99.99,,,-99.99,meteohub,2013-03-15 23:55:00,
2013-03-15 20:00:00,56.7,30.0,29.57,North,-999,-999.0,-999.0,36,-99.99,,,-99.99,meteohub,2013-03-16 00:00:00,
2013-03-15 20:05:00,56.5,29.8,29.57,North,-999,-999.0,-999.0,36,-99.99,,,-99.99,meteohub,2013-03-16 00:05:00,
2013-03-15 20:10:00,56.1,29.7,29.57,North,-999,-999.0,-999.0,36,-99.99,,,-99.99,meteohub,2013-03-16 00:10:00,
2013-03-15 20:16:00,55.9,29.5,29.57,North,-999,-999.0,-999.0,36,-99.99,,,-99.99,meteohub,2013-03-16 00:16:00,
2013-03-15 20:21:00,55.6,29.1,29.60,North,-999,-999.0,-999.0,36,-99.99,,,-99.99,meteohub,2013-03-16 00:21:00,
2013-03-15 20:26:00,55.6,29.8,29.60,North,-999,-999.0,-999.0,37,-99.99,,,-99.99,meteohub,2013-03-16 00:26:00,
2013-03-15 20:31:00,55.4,29.7,29.60,North,-999,-999.0,-999.0,37,-99.99,,,-99.99,meteohub,2013-03-16 00:31:00,
2013-03-15 20:36:00,55.2,29.5,29.60,North,-999,-999.0,-999.0,37,-99.99,,,-99.99,meteohub,2013-03-16 00:36:00,
2013-03-15 20:41:00,55.2,29.5,29.60,North,-999,-999.0,-999.0,37,-99.99,,,-99.99,meteohub,2013-03-16 00:41:00,
2013-03-15 20:47:00,55.4,29.7,29.60,North,-999,-999.0,-999.0,37,-99.99,,,-99.99,meteohub,2013-03-16 00:47:00,
2013-03-15 20:52:00,55.4,29.7,29.60,North,-999,-999.0,-999.0,37,-99.99,,,-99.99,meteohub,2013-03-16 00:52:00,
2013-03-15 20:57:00,55.4,29.7,29.60,North,-999,-999.0,-999.0,37,-99.99,,,-99.99,meteohub,2013-03-16 00:57:00,
2013-03-15 21:02:00,55.6,29.8,29.60,North,-999,-999.0,-999.0,37,-99.99,,,-99.99,meteohub,2013-03-16 01:02:00,
2013-03-15 21:07:00,55.2,29.5,29.57,North,-999,-999.0,-999.0,37,-99.99,,,-99.99,meteohub,2013-03-16 01:07:00,
2013-03-15 21:12:00,55.4,29.7,29.57,North,-999,-999.0,-999.0,37,-99.99,,,-99.99,meteohub,2013-03-16 01:12:00,
2013-03-15 21:17:00,55.2,30.0,29.57,North,-999,-999.0,-999.0,38,-99.99,,,-99.99,meteohub,2013-03-16 01:17:00,
2013-03-15 21:22:00,55.0,30.0,29.60,North,-999,-999.0,-999.0,38,-99.99,,,-99.99,meteohub,2013-03-16 01:22:00,
2013-03-15 21:27:00,54.9,29.8,29.60,North,-999,-999.0,-999.0,38,-99.99,,,-99.99,meteohub,2013-03-16 01:27:00,
2013-03-15 21:32:00,55.2,30.0,29.60,North,-999,-999.0,-999.0,38,-99.99,,,-99.99,meteohub,2013-03-16 01:32:00,
2013-03-15 21:37:00,55.0,30.0,29.57,North,-999,-999.0,-999.0,38,-99.99,,,-99.99,meteohub,2013-03-16 01:37:00,
2013-03-15 21:43:00,55.2,30.0,29.57,North,-999,-999.0,-999.0,38,-99.99,,,-99.99,meteohub,2013-03-16 01:43:00,
2013-03-15 21:48:00,55.2,30.0,29.57,North,-999,-999.0,-999.0,38,-99.99,,,-99.99,meteohub,2013-03-16 01:48:00,
2013-03-15 21:53:00,55.2,30.0,29.57,North,-999,-999.0,-999.0,38,-99.99,,,-99.99,meteohub,2013-03-16 01:53:00,
2013-03-15 21:58:00,55.2,30.0,29.57,North,-999,-999.0,-999.0,38,-99.99,,,-99.99,meteohub,2013-03-16 01:58:00,
2013-03-15 22:03:00,55.2,30.0,29.57,North,-999,-999.0,-999.0,38,-99.99,,,-99.99,meteohub,2013-03-16 02:03:00,
2013-03-15 22:09:00,55.2,30.0,29.57,North,-999,-999.0,-999.0,38,-99.99,,,-99.99,meteohub,2013-03-16 02:09:00,
2013-03-15 22:14:00,55.2,30.0,29.57,North,-999,-999.0,-999.0,38,-99.99,,,-99.99,meteohub,2013-03-16 02:14:00,
2013-03-15 22:19:00,55.2,30.0,29.57,North,-999,-999.0,-999.0,38,-99.99,,,-99.99,meteohub,2013-03-16 02:19:00,
2013-03-15 22:24:00,55.2,30.0,29.57,North,-999,-999.0,-999.0,38,-99.99,,,-99.99,meteohub,2013-03-16 02:24:00,
2013-03-15 22:29:00,55.2,30.0,29.57,North,-999,-999.0,-999.0,38,-99.99,,,-99.99,meteohub,2013-03-16 02:29:00,
2013-03-15 22:34:00,55.2,30.0,29.57,North,-999,-999.0,-999.0,38,-99.99,,,-99.99,meteohub,2013-03-16 02:34:00,
2013-03-15 22:40:00,55.0,30.0,29.57,North,-999,-999.0,-999.0,38,-99.99,,,-99.99,meteohub,2013-03-16 02:40:00,
2013-03-15 22:45:00,54.7,29.7,29.57,North,-999,-999.0,-999.0,38,-99.99,,,-99.99,meteohub,2013-03-16 02:45:00,
2013-03-15 22:50:00,54.7,29.7,29.60,North,-999,-999.0,-999.0,38,-99.99,,,-99.99,meteohub,2013-03-16 02:50:00,
2013-03-15 22:55:00,54.5,30.0,29.60,North,-999,-999.0,-999.0,39,-99.99,,,-99.99,meteohub,2013-03-16 02:55:00,
2013-03-15 23:00:00,54.5,30.0,29.60,North,-999,-999.0,-999.0,39,-99.99,,,-99.99,meteohub,2013-03-16 03:00:00,
2013-03-15 23:05:00,54.5,30.0,29.57,North,-999,-999.0,-999.0,39,-99.99,,,-99.99,meteohub,2013-03-16 03:05:00,
2013-03-15 23:10:00,54.5,30.0,29.57,North,-999,-999.0,-999.0,39,-99.99,,,-99.99,meteohub,2013-03-16 03:10:00,
2013-03-15 23:16:00,54.5,30.0,29.57,North,-999,-999.0,-999.0,39,-99.99,,,-99.99,meteohub,2013-03-16 03:16:00,
2013-03-15 23:21:00,54.5,30.0,29.57,North,-999,-999.0,-999.0,39,-99.99,,,-99.99,meteohub,2013-03-16 03:21:00,
2013-03-15 23:26:00,54.3,30.0,29.57,North,-999,-999.0,-999.0,39,-99.99,,,-99.99,meteohub,2013-03-16 03:26:00,
2013-03-15 23:31:00,54.3,30.0,29.57,North,-999,-999.0,-999.0,39,-99.99,,,-99.99,meteohub,2013-03-16 03:31:00,
2013-03-15 23:37:00,54.0,29.7,29.57,North,-999,-999.0,-999.0,39,-99.99,,,-99.99,meteohub,2013-03-16 03:37:00,
2013-03-15 23:42:00,54.0,29.7,29.57,North,-999,-999.0,-999.0,39,-99.99,,,-99.99,meteohub,2013-03-16 03:42:00,
2013-03-15 23:47:00,53.8,29.5,29.57,North,-999,-999.0,-999.0,39,-99.99,,,-99.99,meteohub,2013-03-16 03:47:00,
2013-03-15 23:52:00,53.6,29.8,29.57,North,-999,-999.0,-999.0,40,-99.99,,,-99.99,meteohub,2013-03-16 03:52:00,
2013-03-15 23:57:00,53.6,29.8,29.57,North,-999,-999.0,-999.0,40,-99.99,,,-99.99,meteohub,2013-03-16 03:57:00,